Voltar ao catálogo

CZ-6A DEB

AtivoLEO
NORAD 100175·DEBRIS·🇨🇳 China

Lançado Jul 30, 2026 de Taiyuan Satellite Launch Center

Loading…

Próximas Passagens (próximas 24 horas)

TLE

AtualizadoSource: Space-Track

Época: Sep 14, 2026, 13:20 UTC

1 A0175U 26173B   26257.55563734 -.00000355  00000-0 -61233-3 0  9995
2 A0175  64.7883 165.7466 0005534 239.4622 120.5861 13.27995776  6185

Acompanhe CZ-6A DEB em tempo real com AllMySat

Download on the App Store